FW7196 Weather Reports


time (UTC)temp
F
wind
direction
speed
knots
gust
knots
rain 1hr
in
rain 24hr
in
rain mn
in
humidity
%
barometer
mb
20260509231536 45 0 0.0 3.5 0.00 0.28 0.28 94 1010.1
20260509230036 45 0 0.0 1.7 0.00 0.28 0.28 94 1010.2
20260509224536 45 0 0.0 0.9 0.00 0.28 0.28 94 1010.3
20260509223035 45 228 0.0 2.6 0.00 0.28 0.28 94 1010.3
20260509221536 45 311 0.0 0.9 0.00 0.28 0.28 94 1010.3
20260509220052 45 0 0.0 0.0 0.00 0.28 0.28 94 1010.6
20260509214935 46 108 0.0 0.0 0.00 0.02 0.27 94 1010.6
20260509214540 45 0 0.0 2.6 0.01 0.28 0.28 94 1010.7
20260509213041 45 0 0.0 0.9 0.01 0.28 0.28 94 1010.8
20260509211543 45 0 0.0 0.9 0.01 0.28 0.28 94 1010.8
20260509210036 45 278 0.0 2.6 0.00 0.27 0.27 93 1010.8
20260509204542 46 0 0.0 0.9 0.00 0.27 0.27 93 1010.7
20260509203037 46 0 0.0 1.7 0.00 0.27 0.27 93 1010.8
20260509201534 46 0 0.0 2.6 0.01 0.27 0.27 93 1010.9
20260509200041 46 121 0.9 5.2 0.03 0.27 0.27 93 1010.8
20260509194541 46 0 0.0 3.5 0.05 0.27 0.27 94 1010.9
20260509193041 46 227 0.9 4.3 0.07 0.27 0.27 93 1011.1
20260509191536 46 0 0.0 4.3 0.08 0.26 0.26 93 1011.2
20260509190039 45 0 0.0 2.6 0.06 0.23 0.23 93 1011.4
20260509184538 46 160 0.0 3.5 0.07 0.22 0.22 93 1011.6
20260509183035 46 0 0.0 2.6 0.07 0.20 0.20 93 1011.5
20260509181535 46 0 0.0 3.5 0.06 0.18 0.18 94 1011.5
20260509180035 45 128 0.0 2.6 0.06 0.16 0.16 94 1011.7
20260509174536 45 0 0.0 0.0 0.07 0.15 0.15 94 1011.9
20260509173038 44 0 0.0 0.0 0.07 0.13 0.13 93 1012.1
20260509171538 44 0 0.0 0.0 0.07 0.11 0.11 92 1012.3
20260509170038 44 0 0.0 0.0 0.08 0.10 0.10 92 1012.4
20260509164536 45 0 0.0 0.0 0.06 0.08 0.08 91 1012.5
20260509163034 46 0 0.0 0.0 0.05 0.06 0.06 90 1012.7
20260509161533 46 0 0.0 2.6 0.02 0.03 0.03 88 1012.7
20260509160035 47 0 0.0 1.7 0.01 0.02 0.02 87 1013.0
20260509154536 47 0 0.0 1.7 0.02 0.02 0.02 87 1012.9
20260509153036 47 0 0.0 1.7 0.01 0.01 0.01 86 1013.2
20260509152054 48 55 0.0 3.5 0.00 0.00 0.01 86 1013.2
20260509151535 47 0 0.0 1.7 0.01 0.01 0.01 86 1013.2
20260509150036 48 0 0.0 0.9 0.01 0.01 0.01 83 1013.1
20260509144544 48 0 0.0 0.0 0.00 0.00 0.00 80 1013.0
20260509143039 49 159 0.9 4.3 0.00 0.00 0.00 71 1012.9
20260509141539 49 0 0.9 2.6 0.00 0.00 0.00 64 1012.9
20260509140054 49 0 0.0 5.2 0.00 0.00 0.00 64 1012.7
20260509134537 49 0 0.0 3.5 0.00 0.00 0.00 62 1012.8
20260509133839 50 82 0.0 0.0 0.00 0.00 0.00 61 1012.8
20260509133344 50 80 0.0 0.0 0.00 0.00 0.00 61 1012.8
20260509133036 49 0 0.0 5.2 0.00 0.00 0.00 61 1012.8
20260509132849 50 155 0.0 2.6 0.00 0.00 0.00 60 1012.7
20260509132345 50 130 0.0 3.5 0.00 0.00 0.00 61 1012.6
20260509131848 50 313 0.0 2.6 0.00 0.00 0.00 61 1012.7
20260509131545 49 138 0.9 6.1 0.00 0.00 0.00 61 1012.8
20260509130735 49 109 0.9 5.2 0.00 0.00 0.00 60 1012.7
20260509130035 48 0 1.7 6.1 0.00 0.00 0.00 63 1012.7
20260509125603 48 56 0.9 5.2 0.00 0.00 0.00 63 1012.6
20260509125048 48 75 0.0 5.2 0.00 0.00 0.00 64 1013.0
20260509124542 46 340 0.9 5.2 0.00 0.00 0.00 67 1013.1
20260509124539 47 55 0.0 2.6 0.00 0.00 0.00 67 1013.1
20260509123032 42 332 0.0 2.6 0.00 0.00 0.00 79 1013.2
20260509121551 40 0 0.0 0.0 0.00 0.00 0.00 84 1013.4
20260509120038 38 0 0.0 0.0 0.00 0.00 0.00 87 1013.5
20260509114535 36 0 0.0 0.0 0.00 0.00 0.00 92 1013.6
20260509113057 34 0 0.0 0.0 0.00 0.00 0.00 93 1013.8
20260509111538 33 0 0.0 0.0 0.00 0.00 0.00 94 1013.6
20260509110038 32 0 0.0 0.0 0.00 0.00 0.00 94 1013.7
20260509104537 30 0 0.0 0.0 0.00 0.00 0.00 94 1013.6
20260509103037 29 0 0.0 0.0 0.00 0.00 0.00 93 1013.7
20260509101537 29 0 0.0 0.0 0.00 0.00 0.00 93 1013.7
20260509100035 29 0 0.0 0.0 0.00 0.00 0.00 92 1013.6
20260509094538 29 0 0.0 0.0 0.00 0.00 0.00 92 1013.2
20260509093038 29 0 0.0 0.0 0.00 0.00 0.00 92 1013.0
20260509091536 29 0 0.0 0.0 0.00 0.00 0.00 91 1012.8
20260509090035 30 0 0.0 0.0 0.00 0.00 0.00 92 1012.8
20260509084538 30 0 0.0 0.0 0.00 0.00 0.00 91 1012.7
20260509083046 31 0 0.0 0.0 0.00 0.00 0.00 92 1012.6
20260509081536 30 0 0.0 0.0 0.00 0.00 0.00 92 1012.3
20260509080037 30 0 0.0 0.0 0.00 0.00 0.00 91 1012.3
20260509074537 31 0 0.0 0.0 0.00 0.00 0.00 91 1012.4
20260509073036 31 0 0.0 0.0 0.00 0.00 0.00 91 1012.7
20260509071540 30 0 0.0 0.0 0.00 0.00 0.00 91 1012.7
20260509070733 31 70 0.0 0.0 0.00 0.00 0.00 91 1012.7
20260509070037 30 0 0.0 0.0 0.00 0.00 0.00 90 1012.8
20260509064536 30 0 0.0 0.0 0.00 0.00 0.00 90 1012.9
20260509063035 31 0 0.0 0.0 0.00 0.00 0.00 89 1012.9
20260509061541 31 0 0.0 0.0 0.00 0.00 0.00 89 1012.9
20260509060037 32 0 0.0 0.0 0.00 0.00 0.00 88 1012.9
20260509054540 32 0 0.0 0.0 0.00 0.00 0.00 88 1013.0
20260509053058 32 0 0.0 0.0 0.00 0.00 0.00 87 1012.9
20260509051536 33 0 0.0 0.0 0.00 0.00 0.00 87 1012.8
20260509050037 33 0 0.0 0.0 0.00 0.00 0.00 86 1012.7
20260509044534 33 0 0.0 0.0 0.00 0.00 0.00 85 1012.5
20260509043046 34 0 0.0 0.0 0.00 0.00 0.00 84 1012.5
20260509041550 35 0 0.0 0.0 0.00 0.00 0.00 83 1012.7
20260509040035 35 0 0.0 0.0 0.00 0.00 0.00 82 1012.5
20260509034546 36 0 0.0 0.0 0.00 0.00 0.00 81 1012.5
20260509033037 37 0 0.0 0.0 0.00 0.00 0.00 80 1012.5
20260509031539 37 0 0.0 0.0 0.00 0.00 0.00 78 1012.3
20260509030036 38 0 0.0 0.0 0.00 0.00 0.00 77 1012.2
20260509024536 39 0 0.0 0.0 0.00 0.00 0.00 75 1012.0
20260509023037 40 0 0.0 0.0 0.00 0.00 0.00 73 1011.9
20260509021538 41 0 0.0 0.0 0.00 0.00 0.00 72 1011.7
20260509020047 42 0 0.0 0.0 0.00 0.00 0.00 70 1011.5
20260509014535 43 0 0.0 0.0 0.00 0.00 0.00 66 1011.4
20260509013047 45 0 0.0 0.0 0.00 0.00 0.00 61 1011.1
20260509011536 46 0 0.0 0.0 0.00 0.00 0.00 58 1011.0
20260509010049 46 0 0.0 2.6 0.00 0.00 0.00 57 1010.8
20260509004537 47 123 0.9 3.5 0.00 0.00 0.00 57 1010.6
20260509003037 47 0 0.0 1.7 0.00 0.00 0.00 54 1010.5
20260509001536 48 0 0.0 2.6 0.00 0.00 0.00 53 1010.3
20260509000034 49 0 0.0 6.1 0.00 0.00 0.00 52 1010.0
20260508235427 49 19 0.9 5.2 0.00 0.00 0.00 50 1009.9
20260508234919 50 192 0.0 0.9 0.00 0.00 0.00 49 1009.8
20260508234538 49 200 0.9 2.6 0.00 0.00 0.00 47 1009.8
20260508234419 50 109 0.0 1.7 0.00 0.00 0.00 47 1009.7
20260508233037 50 0 0.0 6.1 0.00 0.00 0.00 44 1009.4